Location: Great Falls Observatory Park
(38.9954°N, 77.3130°W)
Time: 19:23:35
(UTC-04:00)

Envisat - Visible Passes

Search period start: 18 March 2019 00:00
Search period end: 28 March 2019 00:00
Orbit: 764 x 766 km, 98.2° (Epoch: 18 March)

Date Brightness Start Highest point End Pass type
(mag) Time Alt. Az. Time Alt. Az. Time Alt. Az.
18 Mar 4.6 20:27:03 10° SSW 20:31:43 37° W 20:36:25 10° NNW visible
19 Mar 3.1 19:49:49 10° SSE 19:54:54 85° W 20:00:00 10° NNW visible
20 Mar 5.6 20:53:39 10° SW 20:57:25 21° W 21:01:13 10° NW visible
21 Mar 4.1 20:15:35 10° S 20:20:28 47° W 20:25:22 10° NNW visible
22 Mar 3.0 19:38:38 10° SSE 19:43:41 76° ENE 19:48:46 10° N visible
22 Mar 6.1 21:21:44 10° WSW 21:23:14 11° W 21:24:44 10° WNW visible
23 Mar 5.2 20:41:54 10° SSW 20:46:07 26° W 20:50:23 10° NW visible
24 Mar 3.6 20:04:13 10° S 20:09:13 61° W 20:14:16 10° NNW visible
25 Mar 5.9 21:09:05 10° SW 21:11:53 15° W 21:14:42 10° WNW visible
26 Mar 4.8 20:30:17 10° SSW 20:34:50 33° W 20:39:26 10° NNW visible
27 Mar 3.2 19:52:55 10° S 19:57:59 78° WSW 20:03:05 10° NNW visible
